Location: Newark
(48.2308°N, 120.8549°W)
Time: 07:15:25
(UTC+00:00)

Transit 2A - Visible Passes

Search period start: 26 May 2020 00:00
Search period end: 05 June 2020 00:00
Orbit: 594 x 965 km, 66.7° (Epoch: 25 May)

Date Brightness Start Highest point End Pass type
(mag) Time Alt. Az. Time Alt. Az. Time Alt. Az.
26 May 8.2 05:02:56 10° NNW 05:07:39 23° NNE 05:12:33 10° E visible
26 May 6.5 06:45:46 10° NNW 06:51:54 73° NE 06:55:32 27° SE visible
26 May 7.6 08:29:43 10° NW 08:34:42 26° WSW 08:35:59 24° SW visible
27 May 8.4 04:28:51 10° NNW 04:33:08 20° NNE 04:37:35 10° ENE visible
27 May 6.9 06:11:39 10° NNW 06:17:39 57° NE 06:22:04 20° ESE visible
27 May 7.3 07:55:13 10° NW 08:00:44 35° WSW 08:02:33 29° SW visible
28 May 7.2 05:37:32 10° NNW 05:43:22 45° NE 05:48:40 14° ESE visible
28 May 6.9 07:20:51 10° NW 07:26:44 47° WSW 07:29:08 32° SSW visible
29 May 7.5 05:03:28 10° NNW 05:09:01 36° NE 05:14:49 10° ESE visible
29 May 6.6 06:46:34 10° NW 06:52:40 63° WSW 06:55:46 31° S visible
29 May 8.4 08:32:30 10° WNW 08:34:52 12° W 08:36:15 11° WSW visible
30 May 7.8 04:29:23 10° NNW 04:34:37 29° NE 04:40:04 10° E visible
30 May 6.4 06:12:21 10° NW 06:18:33 82° WSW 06:22:27 25° SSE visible
30 May 8.1 07:57:04 10° WNW 08:01:02 18° WSW 08:02:55 16° SW visible
31 May 6.5 05:38:12 10° NNW 05:44:22 77° NE 05:49:10 19° SE visible
31 May 7.9 07:22:16 10° WNW 07:27:08 24° WSW 07:29:39 19° SW visible
01 Jun 6.8 05:04:04 10° NNW 05:10:09 60° NE 05:15:56 13° SE visible
01 Jun 7.5 06:47:43 10° NW 06:53:11 33° WSW 06:56:25 21° SSW visible
02 Jun 7.1 04:29:57 10° NNW 04:35:52 47° NE 04:42:00 10° ESE visible
02 Jun 7.1 06:13:19 10° NW 06:19:11 44° WSW 06:23:13 20° S visible
03 Jun 6.8 05:39:02 10° NW 05:45:08 59° WSW 05:50:04 17° SSE visible
03 Jun 8.6 07:25:25 10° W 07:27:15 11° W 07:29:05 10° WSW visible
04 Jun 6.6 05:04:48 10° NW 05:11:02 78° WSW 05:16:57 12° SSE visible
04 Jun 8.4 06:49:42 10° WNW 06:53:26 16° WSW 06:57:12 10° SW visible
